Weather observations for the past three days for
Huntingburg
Metric (Imperial)
Date Time (edt) Wind (kph) Vis. (km) Weather Sky Cond. Temperature (ºC) Relative Humidity Wind Chill (°C) Heat Index (°C) Pressure Precipitation (cm)
Air Dwpt 6 hour altimeter (cm) sea level (mb) 1 hr 3 hr 6 hr
Max. Min.
01 18:56 S 9 16.09 Fair CLR 34.4 22.2 49% 39 76.28 1016.3
01 17:56 S 7 16.09 Mostly Cloudy BKN070 35.6 21.7 44% 40 76.25 1016.1
01 16:56 Calm 16.09 A Few Clouds FEW065 34.4 20.6 44% 37 76.28 1016.4
01 15:56 SW 6 16.09 Fair CLR 33.9 21.1 47% 37 76.33 1016.9
01 14:56 W 11 16.09 Fair CLR 35 22.2 47% 40 76.38 1017.5
01 13:56 W 13 16.09 Fair CLR 34.4 22.8 34.4 22.2 51% 40 76.4 1018.0
01 12:56 W 15 16.09 Fair CLR 33.9 23.3 54% 40 76.45 1018.6
01 11:56 W 15 16.09 Fair CLR 32.8 23.9 59% 39 76.48 1019.0
01 10:56 Vrbl 11 16.09 Fair CLR 30.6 23.9 67% 36 76.48 1019.0
01 09:56 SW 7 16.09 Fair CLR 27.8 24.4 82% 32 76.48 1019.3
01 08:56 S 9 16.09 Fair CLR 25 23.9 94% 26 76.5 1019.4
01 07:56 SE 9 16.09 Fair CLR 22.2 22.2 23.9 20.6 100% 76.45 1018.9
01 06:56 SE 6 12.87 Fair CLR 20.6 20.6 100% 76.43 1018.4
01 05:56 Calm 16.09 Fair CLR 21.7 21.7 100% 76.38 1017.8
01 04:56 Calm 16.09 Fair CLR 21.1 21.1 100% 76.35 1017.5
01 03:56 Calm 16.09 Fair CLR 21.7 21.7 100% 76.35 1017.3
01 02:56 Calm 16.09 Fair CLR 23.9 22.8 94% 23 76.35 1017.4
01 01:56 SE 7 16.09 Fair CLR 22.8 22.2 31.1 22.8 96% 76.38 1017.9
01 00:56 S 9 16.09 Fair CLR 24.4 22.8 91% 24 76.35 1017.5
31 23:56 SE 7 16.09 Fair CLR 23.9 23.3 96% 23 76.35 1017.5
31 22:56 Calm 14.48 Fair CLR 25 23.3 90% 26 76.35 1017.5
31 21:56 Calm 16.09 Fair CLR 25 24.4 96% 25 76.33 1017.3
31 20:56 S 6 16.09 Fair CLR 27.8 22.8 74% 31 76.3 1016.8
31 19:56 SW 7 16.09 Fair CLR 31.1 22.2 35 31.1 59% 35 76.28 1016.4
31 18:56 SW 9 16.09 Fair CLR 33.3 22.8 54% 38 76.28 1016.2
31 17:56 SW 13 16.09 Fair CLR 34.4 21.7 48% 38 76.3 1016.6
31 16:56 SW 13 16.09 A Few Clouds FEW060 33.9 22.2 50% 38 76.35 1017.2
31 15:56 SW 9 16.09 A Few Clouds FEW055 33.3 22.2 52% 38 76.38 1017.7
31 14:56 SW 19 16.09 Partly Cloudy SCT060 33.9 22.8 52% 39 76.43 1018.2
31 13:56 SW 13 16.09 A Few Clouds FEW050 33.9 23.3 33.9 21.7 54% 40 76.48 1018.9
31 12:56 SW 13 16.09 Partly Cloudy SCT044 32.8 23.9 59% 39 76.5 1019.4
31 11:56 Vrbl 9 16.09 Fair CLR 31.7 24.4 65% 38 76.53 1019.8
31 10:56 SW 19 16.09 Fair CLR 29.4 23.9 72% 34 76.53 1019.7
31 09:56 SW 13 16.09 Fair CLR 27.8 23.9 79% 32 76.5 1019.3
31 08:56 S 11 16.09 Fair CLR 25 23.9 94% 26 76.48 1019.2
31 07:56 SE 6 16.09 Fair CLR 22.2 22.2 22.8 21.1 100% 76.43 1018.4
31 06:56 S 7 16.09 Fair CLR 22.2 22.2 100% 76.4 1018.1
31 05:56 SE 6 16.09 Fair CLR 21.7 21.7 100% 76.38 1017.8
31 04:56 SE 6 16.09 Fair CLR 21.7 21.7 100% 76.38 1017.7
31 03:56 Calm 16.09 Fair CLR 21.7 21.7 100% 76.35 1017.3
31 02:56 SE 6 16.09 Fair CLR 21.7 21.7 100% 76.35 1017.6
31 01:56 Calm 16.09 Fair CLR 21.7 21.7 30 21.7 100% 76.38 1018.0
31 00:56 Calm 16.09 Fair CLR 21.7 21.7 100% 76.38 1017.7
30 23:56 SE 7 16.09 Fair CLR 22.2 22.2 100% 76.38 1017.6
30 22:56 SE 7 16.09 Fair CLR 22.8 22.2 96% 76.38 1017.6
30 21:56 SE 6 16.09 Fair CLR 24.4 22.2 88% 25 76.35 1017.3
30 20:56 SE 7 16.09 Fair CLR 25.6 22.8 85% 27 76.3 1016.8
30 19:56 S 6 16.09 Fair CLR 30 20.6 33.3 30 57% 32 76.3 1016.7
30 18:56 SW 9 16.09 Fair CLR 32.2 19.4 47% 34 76.3 1016.6
30 17:56 S 15 16.09 Fair CLR 33.3 18.3 41% 34 76.3 1016.8
30 16:56 S 6 16.09 Partly Cloudy SCT070 33.3 18.9 43% 35 76.35 1017.2
30 15:56 S 15 16.09 A Few Clouds FEW070 33.3 19.4 44% 35 76.38 1017.6
30 14:56 S 11 16.09 Mostly Cloudy BKN065 32.8 19.4 45% 35 76.43 1018.2
30 13:56 SW 11 16.09 A Few Clouds FEW055 32.8 19.4 32.8 18.9 45% 35 76.48 1019.1
30 12:56 SW 13 16.09 Fair CLR 31.7 21.7 55% 35 76.53 1019.5
30 11:56 S 11 16.09 Fair CLR 29.4 21.7 63% 32 76.53 1019.7
30 10:56 S 9 16.09 Fair CLR 27.8 21.7 69% 30 76.5 1019.6
30 09:56 S 11 16.09 Fair CLR 25 21.1 79% 26 76.48 1019.3
30 08:56 Calm 16.09 Fair CLR 22.2 21.7 97% 76.48 1019.2
30 07:56 SE 6 14.48 Fair CLR 18.9 18.9 20.6 17.2 100% 76.45 1019.0
30 06:56 SE 6 11.27 Fair CLR 18.3 18.3 100% 76.43 1018.5
30 05:56 Calm 8.05 Fog/Mist CLR 17.8 17.8 100% 76.43 1018.6
30 04:56 Calm 8.05 Fog/Mist CLR 18.3 18.3 100% 76.45 1018.7
30 03:56 Calm 16.09 Fair CLR 18.9 18.9 100% 76.43 1018.7
30 02:56 Calm 11.27 Fair CLR 18.9 18.9 100% 76.45 1018.8
30 01:56 Calm 16.09 Fair CLR 20 20 25.6 20 100% 76.48 1019.2
30 00:56 Calm 16.09 Fair CLR 20 20 100% 76.48 1018.9
29 23:56 Calm 16.09 Fair CLR 20 20 100% 76.45 1018.9
29 22:56 Calm 16.09 Fair CLR 21.7 20.6 94% 76.43 1018.6
29 21:56 E 6 16.09 Fair CLR 23.9 21.1 84% 24 76.43 1018.4
29 20:56 E 6 16.09 Fair CLR 25 20 74% 26 76.4 1018.2
29 19:56 E 7 16.09 Fair CLR 25.6 21.7 31.1 25.6 79% 27 76.4 1018.3
Date Time (edt) Wind (kph) Vis. (km) Weather Sky Cond. Air Dwpt Max. Min. Relative Humidity Wind Chill (°C) Heat Index (°C) altimeter (cm) sea level (mb) 1 hr 3 hr 6 hr
6 hour
Temperature (ºC) Pressure Precipitation (cm)